CAPE
0 0 0 0 0 0 0 0 0 0 0 0 0 110 653 834 1249 1014 1225 1422 1500 1367 938 1311 1432 1405 1256 1085 856 675 718 1119 1636 1718 1470 1261 1142 1201 1380 1430 1681 1717 1529 1440 1066 1078 929 738 754
0 0 0 0 0 0 0 0 0 0 0 0 0 77 324 282 617 1014 413 0 0 0 30 128 597 1317 1562 1362 1334 1194 993 925 1394 1705 1716 1553 1429 1456 1507 1506 1581 1764 1822 1671 1197 1244 1074 790 754
0 0 0 0 0 0 0 0 0 0 0 0 0 0 0 0 0 0 0 0 0 0 0 0 13 264 675 1207 1554 1478 1308 991 937 1441 1820 1938 1912 1785 1708 1600 1623 1729 1757 1448 1300 1414 1225 808 749
0 0 0 0 0 0 0 0 0 0 0 0 0 0 0 0 0 0 0 0 0 0 0 0 0 0 4 206 686 1138 1563 1367 1145 1045 1178 1526 1737 1743 1689 1538 1529 1550 1380 1180 1392 1565 1272 768 717
0 0 0 0 0 0 0 0 0 0 0 0 0 0 0 0 0 0 0 0 0 0 0 0 0 0 0 0 2 129 564 1099 1463 1353 1225 1081 1014 1122 1297 1146 1050 1141 1175 1348 1556 1753 1229 682 672
0 0 0 0 0 0 0 0 0 0 0 0 0 0 0 0 0 0 0 0 0 0 0 0 0 0 0 0 0 0 0 161 641 1338 1406 1407 1082 905 1135 1231 1169 1206 1285 1435 1603 1707 1200 678 613
0 0 0 0 0 0 0 0 0 0 0 0 0 0 0 0 0 0 0 0 0 0 0 0 0 0 0 0 0 0 0 0 9 211 845 1014 1124 1223 1011 955 1286 1313 1390 1501 1594 1386 1027 742 602
0 0 0 0 0 0 0 0 0 0 0 0 0 0 0 0 0 0 0 0 0 0 0 0 0 0 0 0 0 0 0 0 0 0 0 190 926 1020 1126 1120 1027 1222 1357 1414 1527 1218 849 741 620
0 0 0 0 0 0 0 0 0 0 0 0 0 0 0 0 0 0 0 0 0 0 0 0 0 0 0 0 0 0 0 0 0 0 0 16 1248 1584 1508 1302 1037 1071 1066 1297 1352 1240 869 657 575
0 0 0 0 0 0 0 0 0 0 0 0 0 0 0 0 0 0 0 0 0 0 0 0 0 0 0 0 0 0 0 0 0 0 0 0 0 311 1118 1036 1053 1008 927 797 1199 1246 1052 646 754
0 0 0 0 0 0 0 0 0 0 0 0 0 0 0 0 0 0 0 0 0 0 0 0 0 0 0 0 0 0 0 0 0 0 0 0 0 0 143 1299 1324 1499 1212 1203 1180 1301 1284 932 744
0 0 0 0 0 0 0 0 0 0 0 0 0 0 0 0 0 0 0 0 0 0 0 0 0 0 0 0 0 0 0 0 0 0 0 0 0 0 0 0 693 1215 1408 1373 1376 1203 1316 1072 937
0 0 0 0 0 0 0 0 0 0 0 0 0 0 0 0 0 0 0 0 0 0 0 0 0 0 0 0 0 0 0 0 0 0 0 0 0 0 0 0 0 0 1207 1274 990 1113 1259 1241 1048
0 0 0 0 0 0 0 0 0 0 0 0 0 0 0 0 0 0 0 0 0 0 0 0 0 0 0 0 0 0 0 0 0 0 0 0 0 0 0 0 0 0 0 957 1246 934 975 919 1153
0 0 0 0 0 0 0 0 0 0 0 0 0 0 0 0 0 0 0 0 0 0 0 0 0 0 0 0 0 0 0 0 0 0 0 0 0 0 0 0 0 0 0 0 71 1050 960 795 947
0 0 0 0 0 0 0 0 0 0 0 0 0 0 0 0 0 0 0 0 0 0 0 0 0 0 0 0 0 0 0 0 0 0 0 0 0 0 0 0 0 0 0 0 0 2 887 1027 755
0 0 0 0 0 0 0 0 0 0 0 0 0 0 0 0 0 0 0 0 0 0 0 0 0 0 0 0 0 0 0 0 0 0 0 0 0 0 2 1 0 0 0 0 0 0 1 645 898
0 0 0 0 0 0 0 0 0 0 0 0 0 0 0 0 0 0 0 0 0 0 0 0 0 0 0 0 0 0 0 0 0 0 0 0 0 2 1 0 1 7 0 0 0 0 0 0 644
0 0 0 0 0 0 0 0 0 0 0 0 0 0 0 0 0 0 0 0 0 0 0 0 0 0 0 0 0 0 0 0 0 0 0 1 2 0 0 1 2 2 14 1 0 0 0 0 0
0 0 0 0 0 0 0 0 0 0 0 0 0 0 0 0 0 0 0 0 0 0 0 0 0 0 0 0 0 0 0 0 0 0 0 1 5 9 3 4 0 2 4 1 10 9 6 0 0
0 0 0 0 0 0 0 0 0 0 0 0 0 0 0 0 0 0 0 0 0 0 0 0 0 0 0 0 0 0 0 0 0 0 0 1 2 5 7 5 8 9 7 2 4 13 9 8 1
0 0 0 0 0 0 0 0 0 0 0 0 0 0 0 0 0 0 0 0 0 0 0 0 0 0 0 0 0 0 0 0 0 0 1 1 2 3 6 3 3 4 4 11 6 6 10 16 7
0 0 0 0 0 0 0 0 0 0 0 0 0 0 0 0 0 0 0 0 0 0 0 0 0 0 0 0 0 0 0 0 1 1 1 1 1 4 5 4 3 2 3 2 1 2 6 22 18
0 0 0 0 0 0 0 0 0 0 0 0 0 0 0 0 0 0 0 0 0 0 0 0 0 0 0 0 0 1 1 1 1 2 2 3 3 2 4 3 2 3 3 4 2 3 2 2 28
0 0 0 0 3 0 0 0 0 0 0 0 0 0 0 0 0 0 0 0 0 0 0 0 0 0 0 0 0 0 0 1 2 4 2 2 1 2 3 3 3 4 4 4 4 3 3 1 21
0 0 7 4 0 14 1 0 2 0 0 0 0 0 0 0 0 0 0 0 0 0 0 0 0 0 0 0 0 1 1 1 1 2 4 3 2 3 0 1 3 5 4 4 4 5 1 6 4
4 0 11 17 5 6 0 1 0 0 0 0 0 0 0 0 0 0 0 0 0 0 0 0 0 0 0 1 1 2 2 1 2 3 4 6 4 7 5 2 3 2 3 3 3 4 7 3 0
0 2 18 16 2 14 11 27 46 5 0 0 0 0 0 0 0 0 0 0 0 0 0 0 0 0 0 0 1 2 1 3 4 3 5 7 7 5 5 4 2 2 2 2 2 4 3 3 5
22 7 14 11 12 16 10 2 8 0 0 0 0 0 0 0 0 0 0 0 0 0 0 0 0 0 0 0 0 1 2 2 2 2 1 2 3 5 4 5 2 3 1 3 1 2 2 3 3
0 5 10 18 11 25 40 0 0 0 0 0 0 0 0 0 0 0 0 0 0 0 0 0 0 0 0 0 0 0 1 1 0 2 2 0 2 0 3 3 1 1 2 2 1 2 0 1 2
CIN
0 0 0 0 0 0 0 0 0 0 0 0 0 -44 -89 -69 -12 -15 -5 -8 -5 -31 -137 -61 -39 -48 -79 -105 -137 -150 -135 -85 -63 -63 -69 -85 -87 -85 -71 -61 -37 -29 -32 -32 -54 -46 -54 -72 -81
0 0 0 0 0 0 0 0 0 0 0 0 0 -139 -93 -204 -198 -81 -254 0 0 0 -255 -443 -229 -76 -46 -70 -63 -72 -99 -99 -59 -50 -49 -54 -61 -60 -54 -53 -47 -33 -22 -27 -52 -36 -50 -76 -81
0 0 0 0 0 0 0 0 0 0 0 0 0 0 0 0 0 0 0 0 0 0 0 0 -254 -344 -188 -83 -43 -27 -48 -86 -81 -39 -25 -23 -29 -35 -41 -45 -40 -34 -28 -52 -49 -29 -46 -77 -81
0 0 0 0 0 0 0 0 0 0 0 0 0 0 0 0 0 0 0 0 0 0 0 0 0 0 -491 -329 -175 -91 -20 -22 -54 -54 -48 -40 -32 -33 -35 -41 -38 -37 -52 -65 -42 -29 -47 -93 -85
0 0 0 0 0 0 0 0 0 0 0 0 0 0 0 0 0 0 0 0 0 0 0 0 0 0 0 0 -125 -335 -166 -47 0 -10 -18 -31 -50 -53 -48 -59 -65 -58 -61 -42 -20 -12 -55 -105 -96
0 0 0 0 0 0 0 0 0 0 0 0 0 0 0 0 0 0 0 0 0 0 0 0 0 0 0 0 0 0 0 -253 -103 -5 -4 -7 -15 -34 -42 -44 -46 -46 -46 -33 -23 -13 -40 -84 -95
0 0 0 0 0 0 0 0 0 0 0 0 0 0 0 0 0 0 0 0 0 0 0 0 0 0 0 0 0 0 0 0 -68 -203 -58 -47 -31 -12 -16 -34 -35 -31 -28 -20 -15 -30 -49 -80 -97
0 0 0 0 0 0 0 0 0 0 0 0 0 0 0 0 0 0 0 0 0 0 0 0 0 0 0 0 0 0 0 0 0 0 0 -197 -50 -23 -13 -12 -13 -24 -21 -21 -12 -30 -54 -69 -89
0 0 0 0 0 0 0 0 0 0 0 0 0 0 0 0 0 0 0 0 0 0 0 0 0 0 0 0 0 0 0 0 0 0 0 -45 -7 0 0 -1 -5 -10 -21 -25 -23 -22 -44 -65 -80
0 0 0 0 0 0 0 0 0 0 0 0 0 0 0 0 0 0 0 0 0 0 0 0 0 0 0 0 0 0 0 0 0 0 0 0 0 -136 -14 -17 -18 -20 -13 -11 -14 -13 -19 -43 -9
0 0 0 0 0 0 0 0 0 0 0 0 0 0 0 0 0 0 0 0 0 0 0 0 0 0 0 0 0 0 0 0 0 0 0 0 0 0 -206 0 -1 0 -11 -1 -3 -2 -1 -2 -3
0 0 0 0 0 0 0 0 0 0 0 0 0 0 0 0 0 0 0 0 0 0 0 0 0 0 0 0 0 0 0 0 0 0 0 0 0 0 0 0 -40 0 0 0 0 -2 -1 -1 0
0 0 0 0 0 0 0 0 0 0 0 0 0 0 0 0 0 0 0 0 0 0 0 0 0 0 0 0 0 0 0 0 0 0 0 0 0 0 0 0 0 0 0 -1 -7 -1 -1 -1 -1
0 0 0 0 0 0 0 0 0 0 0 0 0 0 0 0 0 0 0 0 0 0 0 0 0 0 0 0 0 0 0 0 0 0 0 0 0 0 0 0 0 0 -6 -2 0 -9 -5 -9 -1
0 0 0 0 0 0 0 0 0 0 0 0 0 0 0 0 0 0 0 0 0 0 0 0 0 0 0 0 0 0 0 0 0 0 0 0 0 0 0 0 0 0 0 0 -104 0 -2 -7 -1
0 0 0 0 0 0 0 0 0 0 0 0 0 0 0 0 0 0 0 0 0 0 0 0 0 0 0 0 0 0 0 0 0 0 0 0 0 0 0 0 0 0 0 0 0 0 0 -1 -12
0 0 0 0 0 0 0 0 0 0 0 0 0 0 0 0 0 0 0 0 0 0 0 0 0 0 0 0 0 0 0 0 0 0 0 0 -1 -1 -1 -1 0 0 0 0 0 0 0 -4 -1
0 0 0 0 0 0 0 0 0 0 0 0 0 0 0 0 0 0 0 0 0 0 0 0 0 0 0 0 0 0 0 0 0 0 0 0 0 0 0 0 0 0 -1 0 0 0 0 0 0
0 0 0 0 0 0 0 0 0 0 0 0 0 0 0 0 0 0 0 0 0 0 0 0 0 0 0 0 0 0 0 0 0 0 -1 -1 0 0 0 -1 0 0 0 -2 0 0 0 0 0
0 0 0 0 0 0 0 0 0 0 0 0 0 0 0 0 0 0 0 0 0 0 0 0 0 0 0 0 0 0 0 0 0 0 0 0 0 0 -1 0 0 0 0 0 -1 -1 -1 -1 0
0 0 0 0 0 0 0 0 0 0 0 0 0 0 0 0 0 0 0 0 0 0 0 0 0 0 0 -1 0 0 0 0 0 0 -1 0 0 0 0 0 0 0 0 0 0 -1 -1 -1 -1
0 0 0 0 0 0 0 0 0 0 0 0 0 0 0 0 0 0 0 0 0 0 0 0 0 0 0 -1 -1 -1 -2 0 -1 -1 -1 -1 0 0 0 0 0 0 0 0 0 -1 0 0 -1
0 0 0 0 0 0 0 0 0 0 0 0 0 0 0 0 0 0 0 0 0 0 0 0 0 0 0 0 -1 -2 -1 -2 -1 -1 -1 -1 -1 0 0 0 0 0 0 0 0 0 0 -1 -1
0 0 0 0 0 0 0 0 0 0 0 0 0 0 0 0 0 0 0 0 0 0 0 0 0 0 -1 -1 -1 -1 -1 -1 -1 -1 -1 -1 0 0 0 0 0 0 0 0 0 0 0 -1 0
0 0 -1 0 -4 0 0 0 0 0 0 0 0 0 0 0 0 0 0 0 0 0 0 0 0 0 0 -1 0 -1 -1 -1 0 -1 -1 -1 0 0 0 0 0 0 0 0 0 0 0 0 -1
0 0 -3 -2 0 -6 -6 0 -3 0 0 0 0 0 0 0 0 0 0 0 0 0 0 0 0 0 0 -1 -1 0 0 0 -1 0 0 0 0 0 0 0 0 0 0 0 0 0 0 0 -2
-1 0 -5 -2 -3 -3 0 -5 0 0 0 0 0 0 0 0 0 0 0 0 0 0 0 0 0 0 0 -1 0 0 0 0 0 0 0 0 0 0 0 0 0 0 0 0 0 0 0 0 0
0 -5 -2 -4 -1 -4 -4 -3 -3 -3 0 0 0 0 0 0 0 0 0 0 0 0 0 0 0 0 0 0 0 0 0 0 0 0 0 0 0 0 0 0 0 0 0 0 0 0 0 0 0
-4 -5 -3 -2 -3 -1 -3 -2 -10 0 0 0 0 0 0 0 0 0 0 0 0 0 0 0 0 0 0 0 0 -1 0 0 0 0 0 0 0 0 0 0 0 0 0 0 0 0 0 0 0
0 -3 -3 -3 -2 -2 -1 0 0 0 0 0 0 0 0 0 0 0 0 0 0 0 0 0 0 0 0 0 0 0 0 0 0 0 0 0 0 0 0 0 0 0 0 0 0 0 0 0 0
Wind_Speed
19 17 17 14 15 14 13 13 13 11 11 12 11 9 8 12 14 10 15 19 17 17 18 18 19 18 18 19 18 17 16 15 13 11 9 9 9 9 9 10 10 10 9 9 9 10 11 11 12
19 17 13 15 17 14 12 12 12 10 8 8 10 9 9 11 14 11 14 20 16 16 18 20 21 21 20 20 19 19 18 16 14 12 10 8 8 8 7 8 8 8 8 8 8 9 10 11 11
16 15 14 16 16 16 12 12 13 6 6 8 9 11 11 12 14 12 16 16 16 17 18 21 22 23 23 23 22 20 19 17 16 13 11 9 8 6 6 6 6 7 7 7 7 7 9 9 10
16 12 12 13 14 14 13 13 10 6 6 8 7 10 10 13 10 13 15 15 16 17 19 22 23 24 25 25 25 24 23 19 17 14 11 10 9 7 5 5 6 7 7 7 6 6 8 8 8
13 14 14 13 12 12 13 13 7 6 7 4 6 7 9 11 10 12 14 16 16 18 20 22 24 25 25 26 26 26 25 24 20 18 16 12 10 8 7 6 6 6 8 8 7 7 7 6 6
13 15 15 12 11 11 12 13 7 8 6 7 6 6 10 8 10 13 14 16 17 18 21 22 24 26 26 27 28 27 27 26 25 21 19 20 14 9 10 10 8 7 8 9 7 6 7 6 6
16 14 15 14 9 10 12 12 9 7 7 10 6 10 7 8 12 13 14 16 18 20 22 24 25 27 28 28 29 29 28 27 26 25 24 24 24 20 12 10 10 10 9 10 9 9 7 7 6
16 15 13 10 9 12 11 11 10 8 10 9 13 12 6 9 13 13 15 16 19 22 23 25 26 28 29 29 30 30 29 28 27 26 26 27 24 21 19 14 12 13 12 11 11 13 11 10 8
16 14 13 10 10 11 9 9 11 12 8 12 13 12 9 10 11 13 15 19 21 23 25 27 28 30 30 30 30 30 29 29 29 28 29 28 26 25 23 20 17 15 13 14 13 13 13 11 10
16 17 14 13 11 9 10 11 10 9 8 11 10 10 9 10 13 15 17 20 23 25 27 28 29 31 31 30 31 30 30 29 29 29 30 29 30 30 28 25 22 22 21 15 14 17 17 17 15
16 18 15 13 13 13 12 12 13 10 9 12 7 8 11 13 16 17 20 22 24 26 27 29 30 31 31 31 31 30 30 31 30 31 32 32 31 30 30 29 25 24 21 19 18 17 16 16 15
18 16 16 15 16 17 15 15 15 17 15 12 9 11 13 16 18 20 22 24 25 27 28 30 31 31 31 31 30 31 32 32 32 34 34 33 32 32 31 32 32 28 26 25 23 22 17 15 16
18 18 18 18 18 19 19 18 15 15 12 11 10 12 15 17 19 20 22 23 25 26 28 30 31 31 32 32 31 32 32 32 35 34 34 34 35 34 33 33 32 33 30 26 26 26 25 22 19
18 19 19 20 20 19 18 16 16 14 10 12 13 14 15 17 20 21 23 24 26 27 29 30 32 32 32 32 32 32 31 33 33 33 34 35 35 35 35 35 33 33 33 33 25 25 26 27 26
19 23 19 18 19 18 17 18 17 12 11 13 14 15 16 18 20 22 23 25 27 28 30 32 33 34 34 34 35 33 33 34 34 34 34 36 36 36 36 36 36 34 33 34 37 26 25 28 28
21 21 23 16 17 18 16 27 16 14 14 15 15 17 18 19 21 22 24 26 28 29 31 32 34 35 36 36 36 35 35 36 35 36 37 38 38 38 39 38 37 36 36 34 34 35 29 27 29
20 26 23 25 20 21 18 27 18 15 16 18 18 19 20 20 21 23 25 27 29 30 32 34 35 36 37 36 35 35 36 36 36 37 38 38 40 40 41 41 40 38 38 37 36 36 35 31 30
29 28 27 26 24 24 26 29 23 20 19 19 19 19 21 22 23 24 26 27 29 30 32 34 35 36 37 35 36 37 38 38 39 39 39 41 40 41 41 41 40 40 40 39 37 38 37 37 34
30 32 34 31 26 31 31 33 30 23 22 22 22 22 23 23 23 25 26 28 29 30 32 34 35 36 37 38 40 41 42 41 40 39 40 41 41 41 41 41 41 40 41 41 40 40 40 41 39
31 35 37 34 32 34 37 39 35 26 26 24 24 24 25 25 26 26 27 28 29 31 32 33 34 35 36 38 39 40 41 40 41 39 41 41 42 42 41 40 41 40 42 43 43 42 43 41 38
31 35 36 36 36 37 39 46 37 29 27 26 25 24 24 25 27 27 27 27 28 30 31 32 34 35 36 38 39 40 40 40 41 42 42 42 42 41 41 41 41 41 40 41 42 43 42 44 39
38 33 33 36 37 41 29 50 35 25 27 26 24 23 24 24 24 25 26 26 27 29 28 30 32 34 36 38 39 41 42 44 43 42 42 42 39 39 38 38 37 39 39 39 38 38 43 41 46
31 24 28 33 37 40 36 39 39 25 29 26 23 22 23 22 22 24 24 24 24 25 27 28 31 33 35 37 38 40 42 41 41 41 42 39 38 37 37 38 40 39 38 37 39 39 37 41 42
26 29 34 35 36 42 37 36 43 34 30 27 20 18 17 19 19 20 20 20 22 24 26 28 30 32 34 37 38 39 41 41 41 41 39 38 38 38 37 39 38 38 38 38 38 39 41 38 40
26 31 36 36 32 39 33 33 35 28 25 24 20 18 16 16 17 19 19 20 22 24 26 28 29 32 34 36 37 39 39 38 38 39 38 39 39 38 38 38 38 36 36 37 38 39 39 36 37
25 25 30 39 39 37 30 34 30 25 23 21 15 13 14 16 17 18 19 20 22 24 26 27 28 31 32 34 36 37 37 37 37 37 37 37 37 36 36 36 35 34 34 34 35 34 37 36 38
21 24 24 33 36 39 37 35 30 24 22 19 16 15 15 14 15 17 19 21 22 24 24 25 27 29 30 32 34 35 36 36 36 37 37 36 36 35 34 33 33 32 32 32 30 29 32 33 31
25 23 27 24 35 39 32 31 30 24 22 18 16 14 14 13 14 17 19 20 22 22 22 23 25 26 28 30 32 33 34 35 35 36 37 38 38 37 35 34 33 32 31 31 28 26 25 23 23
21 20 21 24 24 32 38 32 21 21 21 17 15 14 13 13 15 17 17 19 20 20 20 21 23 25 27 28 30 32 33 33 34 34 36 37 37 40 39 36 33 33 32 30 28 25 20 17 14
21 24 23 27 29 25 28 30 19 19 19 16 15 13 13 14 15 16 16 17 18 19 19 20 21 23 25 27 28 30 32 31 33 33 34 36 38 39 39 41 38 34 33 30 27 21 21 13 12
Wind_Direction
352 350 343 344 326 324 320 329 337 339 349 350 350 345 11 348 330 333 358 343 349 1 354 356 353 359 0 358 358 358 359 2 9 21 36 49 61 64 67 68 64 67 69 63 52 45 28 18 8
349 347 350 339 312 311 317 336 337 351 16 27 15 22 1 352 342 354 339 322 347 353 353 351 351 353 355 356 354 349 345 348 353 1 10 20 38 45 48 52 53 58 61 55 53 43 33 24 18
351 348 335 324 313 308 321 333 333 359 13 358 357 348 336 330 336 344 328 336 352 354 355 353 352 352 351 349 347 345 344 343 343 347 349 357 15 33 28 33 34 33 38 47 51 51 31 29 28
345 350 345 324 317 322 327 334 346 0 1 345 10 355 358 339 342 351 348 356 2 0 357 353 353 350 348 345 344 340 338 338 334 337 338 340 346 2 13 17 10 8 5 17 30 41 28 29 33
348 335 323 323 324 332 336 333 346 349 346 12 351 351 342 343 2 354 356 357 359 357 356 356 354 354 352 348 343 338 335 333 328 326 326 329 330 332 338 346 352 350 343 346 359 7 16 28 33
339 328 320 318 327 336 339 340 347 339 352 349 356 350 338 353 346 347 351 352 353 351 349 349 347 344 346 347 343 337 335 331 325 322 319 316 322 321 318 320 325 330 328 331 339 349 352 2 17
325 329 319 322 334 340 338 341 345 343 343 330 356 324 343 337 334 341 343 346 346 344 341 340 339 336 332 336 336 336 333 329 326 321 316 309 306 310 311 305 307 311 315 318 320 325 330 334 343
332 329 324 330 327 326 340 343 342 352 339 346 324 318 321 328 324 331 336 337 337 336 337 334 333 331 330 329 327 328 329 328 325 322 318 311 308 308 306 304 299 300 301 304 306 309 313 316 321
335 327 322 331 320 328 339 345 335 334 356 334 326 333 345 341 337 337 333 332 330 331 332 331 329 327 325 324 325 327 327 326 323 321 317 311 311 308 306 303 298 295 289 291 294 297 301 305 307
329 319 324 330 324 332 334 332 334 340 359 339 340 353 348 339 330 322 328 328 328 326 328 328 327 326 325 324 323 325 325 325 325 322 318 316 309 304 303 302 301 297 293 286 284 290 292 295 299
327 318 323 323 323 320 319 322 320 323 332 332 353 352 339 324 315 319 322 325 324 323 324 326 327 327 325 323 324 324 323 322 322 321 318 313 310 308 304 300 298 295 292 286 283 281 282 284 288
320 320 317 319 316 311 310 312 310 306 308 323 330 321 315 313 312 315 316 319 322 322 325 327 328 327 326 323 325 323 323 321 320 318 318 316 312 307 304 300 297 294 291 287 284 283 277 274 278
320 318 313 310 308 306 306 307 309 309 314 319 321 316 313 310 311 318 322 326 326 327 327 327 326 327 326 326 327 326 325 324 321 321 320 318 313 308 304 301 297 293 291 286 282 280 278 277 275
324 321 315 309 305 304 302 305 308 309 315 311 311 311 313 312 313 318 320 322 324 328 329 330 330 330 329 330 329 329 329 328 327 325 322 318 315 310 305 301 297 294 290 288 282 275 275 274 274
322 311 313 310 308 305 305 298 297 303 302 303 305 307 309 309 313 316 319 319 322 325 327 328 328 327 325 325 324 325 326 326 325 324 322 318 315 311 307 302 296 293 291 287 286 277 272 273 273
315 314 305 315 315 312 304 298 297 299 295 296 298 300 303 307 312 317 319 321 323 324 325 327 328 327 325 323 323 323 323 324 324 322 318 315 313 309 306 302 297 294 290 287 283 284 271 269 268
311 301 305 304 309 307 297 299 302 298 293 293 294 296 298 302 309 314 317 319 320 322 323 324 326 327 326 326 326 325 324 325 324 322 318 315 312 308 304 300 297 294 289 286 283 279 280 273 267
303 302 303 302 307 302 297 296 298 294 290 289 291 294 297 300 306 311 315 318 320 322 324 325 326 327 327 326 325 325 325 324 323 320 318 315 312 308 304 300 296 293 289 285 282 279 277 276 272
301 297 296 300 305 301 296 295 295 290 290 288 288 291 295 299 307 312 315 318 320 322 324 325 326 327 326 325 323 323 323 324 323 321 319 316 313 308 304 300 296 292 288 285 283 280 276 274 275
298 295 294 299 299 297 296 293 295 288 289 287 288 290 294 300 304 310 314 317 320 322 325 327 328 328 328 327 326 326 325 324 323 322 319 317 314 310 306 302 297 292 287 284 282 278 277 274 267
298 297 297 297 299 297 297 292 290 289 290 290 292 295 297 300 304 309 315 319 323 325 327 329 330 331 332 331 330 329 328 327 325 323 321 318 314 312 307 303 299 294 290 285 282 280 275 274 272
295 300 299 298 298 295 302 292 297 295 292 293 292 294 298 302 307 311 315 321 324 328 331 334 335 335 335 335 334 332 330 326 326 324 323 322 321 317 314 309 305 299 294 289 285 282 277 274 268
304 310 305 304 301 299 295 294 300 301 295 295 293 295 300 305 310 314 318 325 330 334 336 338 339 339 340 339 338 336 333 331 329 328 326 327 328 325 316 309 301 298 295 291 286 284 279 274 269
307 304 301 300 300 292 296 291 295 300 300 306 303 302 308 313 315 321 327 331 333 335 337 339 341 343 344 344 343 342 339 337 335 333 332 333 329 323 316 312 309 305 298 294 289 283 280 274 270
298 301 300 298 294 297 302 297 292 305 312 312 308 305 313 319 320 325 328 330 331 332 335 338 340 343 345 348 350 349 347 346 347 342 337 332 330 326 319 319 316 313 306 299 293 285 280 274 269
308 299 295 297 298 302 309 299 305 315 316 317 320 317 317 317 321 325 330 332 332 331 334 337 341 343 349 351 354 356 356 355 350 348 343 338 334 329 320 323 321 321 315 308 302 292 284 275 268
313 304 307 300 299 297 297 299 305 312 313 314 312 315 316 323 327 327 328 330 332 334 338 342 346 349 353 355 357 359 360 360 358 355 351 349 347 337 337 335 334 334 330 324 319 311 296 284 270
300 314 306 307 302 297 304 305 305 313 315 315 313 310 317 325 329 331 332 334 336 340 345 349 352 355 356 358 1 2 2 3 4 2 0 360 356 349 344 345 348 348 344 345 342 335 317 298 282
311 304 309 310 305 304 302 304 326 326 329 322 313 312 318 323 326 330 335 337 339 345 349 353 356 358 358 3 4 10 6 5 6 4 4 3 1 4 2 1 358 5 358 349 348 344 331 310 302
305 303 304 301 303 306 310 309 324 326 326 331 318 312 312 323 327 329 335 339 342 346 350 354 358 356 1 3 9 15 12 7 10 4 3 5 7 9 6 11 17 10 10 2 360 352 346 325 326